WB5LFS-1 Weather Reports


time (UTC)temp
C
wind
direction
speed
KPH
gust
KPH
rain 1hr
cm
rain 24hr
cm
rain mn
cm
humidity
%
barometer
mb
20260505121148 18 184 0.0 11.3 0.00 0.00 0.00 65 1015.5
20260505115648 17 176 0.0 6.4 0.00 0.00 0.00 68 1015.5
20260505114148 16 138 0.0 3.2 0.00 0.00 0.00 70 1015.3
20260505112648 16 0 0.0 0.0 0.00 0.00 0.00 71 1015.2
20260505111148 15 0 0.0 0.0 0.00 0.00 0.00 74 1015.1
20260505101148 13 0 0.0 0.0 0.00 0.00 0.00 77 1014.6
20260505095649 14 0 0.0 0.0 0.00 0.00 0.00 76 1014.5
20260505094148 14 0 0.0 0.0 0.00 0.00 0.00 75 1014.3
20260505092649 14 0 0.0 0.0 0.00 0.00 0.00 75 1014.4
20260505091149 15 0 0.0 0.0 0.00 0.00 0.00 73 1014.3
20260505085649 15 0 0.0 0.0 0.00 0.00 0.00 73 1014.1
20260505084149 15 0 0.0 0.0 0.00 0.00 0.00 72 1014.1
20260505082649 15 0 0.0 0.0 0.00 0.00 0.00 71 1014.2
20260505081149 16 0 0.0 4.8 0.00 0.00 0.00 71 1014.2
20260505075649 16 0 1.6 4.8 0.00 0.00 0.00 70 1014.0
20260505074149 16 0 0.0 4.8 0.00 0.00 0.00 70 1013.9
20260505072649 16 0 1.6 6.4 0.00 0.00 0.00 69 1013.9
20260505071149 16 0 0.0 6.4 0.00 0.00 0.00 69 1013.7
20260505065649 16 0 0.0 4.8 0.00 0.00 0.00 69 1013.7
20260505064149 16 0 0.0 1.6 0.00 0.00 0.00 69 1013.7
20260505062649 17 0 0.0 3.2 0.00 0.00 0.00 68 1013.7
20260505061149 17 0 1.6 9.7 0.00 0.00 0.00 68 1013.8
20260505055649 17 0 1.6 3.2 0.00 0.00 0.00 67 1013.7
20260505054149 17 0 1.6 9.7 0.00 0.00 0.00 67 1013.7
20260505052649 17 0 1.6 4.8 0.00 0.00 0.00 67 1013.9
20260505051149 17 0 0.0 0.0 0.00 0.00 0.00 68 1013.8
20260505041149 17 0 1.6 6.4 0.00 0.00 0.00 68 1013.8
20260505035649 17 0 0.0 0.0 0.00 0.00 0.00 67 1013.6
20260505034149 18 0 0.0 3.2 0.00 0.00 0.00 65 1013.6
20260505032649 18 0 1.6 12.9 0.00 0.00 0.00 62 1013.4
20260505031149 18 0 1.6 9.7 0.00 0.00 0.00 60 1013.4
20260505025649 18 0 0.0 0.0 0.00 0.00 0.00 59 1013.3
20260505024149 18 0 0.0 0.0 0.00 0.00 0.00 61 1013.2
20260505022649 18 0 0.0 0.0 0.00 0.00 0.00 61 1012.9
20260505021149 18 0 0.0 0.0 0.00 0.00 0.00 61 1012.6
20260505015649 18 0 0.0 0.0 0.00 0.00 0.00 62 1012.6
20260505014149 18 0 0.0 0.0 0.00 0.00 0.00 59 1012.6
20260505012649 18 0 0.0 0.0 0.00 0.00 0.00 60 1012.5
20260505011149 18 0 0.0 0.0 0.00 0.00 0.00 63 1012.4
20260505005649 18 0 0.0 0.0 0.00 0.00 0.00 57 1012.4
20260505004149 18 0 0.0 0.0 0.00 0.00 0.00 55 1012.3
20260505002649 19 0 0.0 0.0 0.00 0.00 0.00 52 1012.2
20260505001149 20 0 0.0 0.0 0.00 0.00 0.00 49 1012.1
20260504235649 21 0 0.0 0.0 0.00 0.00 0.00 47 1012.0
20260504234149 21 0 0.0 1.6 0.00 0.00 0.00 46 1012.0
20260504232649 22 153 0.0 0.0 0.00 0.00 0.00 45 1011.9
20260504231149 23 141 0.0 0.0 0.00 0.00 0.00 42 1011.8
20260504225649 23 141 0.0 1.6 0.00 0.00 0.00 42 1011.8
20260504224149 23 180 0.0 0.0 0.00 0.00 0.00 41 1011.7
20260504222649 23 291 0.0 0.0 0.00 0.00 0.00 41 1011.8
20260504221149 23 153 0.0 1.6 0.00 0.00 0.00 40 1011.8
20260504215649 24 134 0.0 1.6 0.00 0.00 0.00 38 1011.6
20260504214149 25 128 0.0 0.0 0.00 0.00 0.00 38 1011.7
20260504212649 26 202 0.0 3.2 0.00 0.00 0.00 37 1011.7
20260504211149 26 123 0.0 11.3 0.00 0.00 0.00 32 1011.7
20260504205649 26 328 1.6 0.0 0.00 0.00 0.00 36 1011.7
20260504204149 26 85 0.0 0.0 0.00 0.00 0.00 34 1011.8
20260504202650 26 326 0.0 6.4 0.00 0.00 0.00 36 1011.8
20260504201149 25 91 0.0 3.2 0.00 0.00 0.00 34 1011.9
20260504195649 25 192 0.0 4.8 0.00 0.00 0.00 33 1012.2
20260504194149 25 302 0.0 0.0 0.00 0.00 0.00 33 1012.4
20260504192650 25 284 0.0 6.4 0.00 0.00 0.00 33 1012.6
20260504191149 24 154 0.0 1.6 0.00 0.00 0.00 30 1012.7
20260504185650 24 246 0.0 11.3 0.00 0.00 0.00 30 1013.1
20260504184150 24 66 1.6 12.9 0.00 0.00 0.00 33 1013.3
20260504182650 23 247 1.6 0.0 0.00 0.00 0.00 35 1013.4
20260504181150 23 279 0.0 4.8 0.00 0.00 0.00 35 1013.7
20260504175650 22 302 0.0 0.0 0.00 0.00 0.00 34 1013.8
20260504174150 22 288 0.0 3.2 0.00 0.00 0.00 34 1014.1
20260504172650 22 288 1.6 11.3 0.00 0.00 0.00 33 1014.1
20260504171150 22 11 3.2 11.3 0.00 0.00 0.00 34 1014.3
20260504151150 20 246 1.6 17.7 0.00 0.00 0.00 42 1015.6
20260504141150 18 271 0.0 8.0 0.00 0.00 0.00 49 1015.7